LEGION 1

Last updated on Mon Jul 07 2025 00:02:29 GMT+0000 (Coordinated Universal Time)

1 59625U 24081A 25187.55709519 .00003897 00000+0 20103-3 0 9991 2 59625 97.5363 263.2939 0002775 334.3880 25.7215 15.16937061 65143
UTC large
Height (km)
Speed (km/s)
/
Latitude / Longitude
Inclination (degrees)
Orbital Period (minutes)
Azimuth
Elevation
Range (km)
Doppler Factor

Next 0 passes for location: London (51.5072 / 0.1276)

Sorry there are no passes over London.